User: anonymous   Login
Location: Unspecified
(0.0000°N, 0.0000°E)
Time: 23:16:19
(UTC+00:00)
Language:

STARLINK-30754 - Orbit

View from above orbital plane
View from above orbital plane
View from above satellite
View from above satellite

Ground track
Ground track

The orbit is defined by the following mean orbital elements,

1 58124U          26145.03364437 +.00000000 +00000-0 +38484-5 0 00003
2 58124  43.0032  61.2656 0001228 262.3656  97.7056 15.27588008    01
Epoch (UTC): 25 May 2026 00:48:26
Eccentricity: 0.0001228
inclination: 43.0032°
perigee height: 482 km
apogee height: 484 km
right ascension of ascending node: 61.2656°
argument of perigee: 262.3656°
revolutions per day: 15.27588008
mean anomaly at epoch: 97.7056°

The dashed part of the orbit path shows where the satellite is in the earth's shadow,  

DLR